Flag for U.S.A. Weather past 2 weeks in Grand Junction, Colorado, U.S.A.

Now
75 °F

Sunny.


Feels Like: 75 °F
Forecast: 43 / 78 °F
Wind: 8 mph from West

Location: Walker Field

Current Time: Mar 31, 2015 at 5:53:50 PM

Latest Report: Mar 31, 2015 at 4:53 PM


Visibility: 10 mi

Pressure: 29.71 "Hg

Humidity: 13%

Dew point: 21 °F

Location of Grand JunctionLocation

Historic Weather in Grand Junction — Graph

°F

Grand Junction temperature yesterday

Maximum temperature yesterday: 76 °F (at 4:53 PM)
Minimum temperature yesterday: 33 °F (at 6:53 AM)
Average temperature yesterday: 56 °F

Past Weeks' High & Low Weather Summary

 TemperatureHumidityPressure
High77 °F (Mar 28, 3:53 PM)100% (Mar 24, 1:53 AM)30.37 "Hg (Mar 24, 1:53 AM)
Low28 °F (Mar 26, 3:53 AM)8% (Mar 29, 2:53 PM)29.71 "Hg (Mar 23, 3:53 PM)
Average53 °F32%30.01 "Hg
* Reported Mar 16 3:53 PM — Mar 31 3:53 PM, Grand Junction, Weather by CustomWeather, © 2015

Note: Actual official high and low records may vary slightly from our data, if they occured in-between our weather recording intervals... More about our weather records

Advertising

Grand Junction weather history for previous 24 hours

 ConditionsComfort  
Time TempWeatherWind HumidityBarometerVisibility
3:53 PM
Tue, Mar 31
73 °FSunny.No wind13%29.76 "Hg10 mi
2:53 PM76 °FSunny.N/A13%29.79 "Hg10 mi
1:53 PM72 °FSunny.3 mph14%29.83 "Hg10 mi
12:53 PM70 °FSunny.5 mph16%29.88 "Hg10 mi
11:53 AM66 °FSunny.5 mph18%29.93 "Hg10 mi
10:53 AM62 °FSunny.6 mph20%29.96 "Hg10 mi
9:53 AM61 °FSunny.7 mph20%29.99 "Hg10 mi
8:53 AM53 °FSunny.10 mph31%29.99 "Hg10 mi
7:53 AM46 °FClear.10 mph38%30.00 "Hg10 mi
6:53 AM42 °FClear.13 mph41%29.97 "Hg10 mi
5:53 AM43 °FClear.8 mph42%29.95 "Hg10 mi
4:53 AM46 °FClear.14 mph37%29.94 "Hg10 mi
3:53 AM46 °FClear.5 mph37%29.94 "Hg10 mi
2:53 AM48 °FClear.6 mph32%29.96 "Hg10 mi
1:53 AM51 °FClear.13 mph29%29.96 "Hg10 mi
12:53 AM52 °FClear.12 mph27%29.96 "Hg10 mi
11:53 PM
Mon, Mar 30
52 °FClear.6 mph25%29.96 "Hg10 mi
10:53 PM55 °FClear.3 mph21%29.97 "Hg10 mi
9:53 PM50 °FClear.No wind28%29.99 "Hg10 mi
8:53 PM59 °FClear.No wind18%29.98 "Hg10 mi
7:53 PM61 °FSunny.7 mph17%29.98 "Hg10 mi
6:53 PM72 °FSunny.7 mph11%29.96 "Hg10 mi
5:53 PM74 °FSunny.6 mph10%29.94 "Hg10 mi
Weather by CustomWeather, © 2015

See weather overviewHow to use our weather pages